#timestamp,LO_Frequency,Hit,StdDev 
1547859615.0,286046993.8,N
1547859615.9,286046993.8,N
1547859635.8,286046997.0,N
1547859655.6,286047003.3,N
1547859675.4,286047002.1,N
1547859695.3,286047000.1,N
1547859715.1,286047002.7,N
1547859735.9,286046993.5,N
1547859755.7,286046993.0,N
1547859775.5,286046997.3,N
1547859795.4,286047001.6,N
1547859815.2,286047000.0,N
1547859835.0,286046999.7,N
1547859836.0,286046999.7,N
1547859855.8,286046998.2,N
1547859875.6,286047006.7,N
1547859895.5,286047010.9,N
1547859915.3,286047010.1,N
1547859935.1,286047009.2,N
1547859955.9,286047008.7,N
1547859975.7,286047007.7,N
1547859995.6,286047009.6,N
1547860015.4,286047008.0,N
1547860035.2,286047010.0,N
1547860055.1,286047012.6,N
1547860056.0,286047012.6,N
1547860075.8,286047017.2,N
1547860095.7,286047011.6,N
1547860115.5,286047015.0,N
1547860135.3,286047006.9,N
1547860155.2,286047008.8,N
1547860175.0,286047013.9,N
1547860175.9,286047013.9,N
1547860195.8,286047011.8,N
1547860215.6,286047011.6,N
1547860235.4,286047006.6,N
1547860255.3,286047011.3,N
1547860275.1,286047012.4,N
1547860295.8,286047012.7,N
1547860315.7,286047006.6,N
1547860336.7,286047010.4,N
1547860355.7,286046998.5,N
1547860375.5,286047001.2,N
1547860395.3,286047003.8,N
1547860415.2,286046998.1,N
1547860435.0,286047006.5,N
1547860435.9,286047006.5,N
1547860455.8,286047010.3,N
1547860475.6,286047004.8,N
1547860495.4,286047005.9,N
1547860515.3,286046998.0,N
1547860535.1,286046993.2,N
1547860555.9,286046999.0,N
1547860575.7,286047003.2,N
1547860595.5,286047002.7,N
1547860615.4,286047005.3,N
1547860635.2,286046998.3,N
1547860655.0,286047000.8,N
1547860655.9,286047000.8,N
1547860675.8,286047005.9,N
1547860695.6,286047007.5,N
1547860715.5,286047010.6,N
1547860735.3,286047018.2,Y
1547860755.1,286047008.4,P
1547860775.9,286047006.5,P
1547860795.7,286047003.3,N
1547860815.6,286047005.1,N
1547860835.4,286047002.2,N
1547860855.2,286047002.4,N
1547860875.1,286047005.0,N
1547860876.0,286047005.0,N
1547860895.8,286046998.5,N
1547860915.7,286046997.1,N
1547860935.5,286047000.8,N
1547860955.3,286047000.5,N
1547860975.2,286047003.8,N
1547860995.0,286046999.2,N
1547860995.9,286046999.2,N
1547861015.7,286046999.9,N
1547861035.6,286047004.1,N
1547861055.4,286047005.7,N
1547861075.3,286047002.3,N
1547861095.1,286046997.9,N
1547861096.0,286046997.9,N
1547861115.8,286046996.8,N
1547861135.7,286046998.6,N
1547861155.5,286047001.4,N
1547861175.3,286046998.3,N
1547861195.2,286047007.3,N
1547861215.0,286047008.8,N
1547861215.9,286047008.8,N
1547861235.8,286047012.1,Y
1547861255.6,286047007.6,P
1547861275.4,286047011.1,P
1547861295.3,286047012.9,P
1547861315.1,286047007.8,N
1547861335.9,286047008.0,N
1547861355.7,286047009.3,N
1547861375.5,286047010.5,Y
1547861395.4,286046993.4,P
1547861415.2,286046993.8,N
1547861435.0,286046996.0,N
1547861436.0,286046996.0,N
1547861455.8,286046995.6,N
1547861475.6,286046998.7,N
1547861495.5,286046992.3,N
1547861515.3,286046992.8,N
1547861535.1,286046990.2,N
1547861555.9,286046987.6,N
1547861575.7,286046988.0,N
1547861595.6,286046984.3,N
1547861615.4,286046989.2,N
1547861635.3,286046994.8,N
1547861655.1,286046992.0,N
1547861656.0,286046992.0,N
1547861675.8,286046988.2,N
1547861695.7,286046991.2,N
1547861715.5,286046988.2,N
1547861735.3,286046989.9,N
1547861755.2,286046982.1,Y
1547861775.0,286046992.9,P
1547861775.9,286046992.9,P
1547861795.8,286046988.3,P
1547861815.6,286046992.3,Y
1547861835.4,286047000.9,P
1547861855.3,286046999.6,N
1547861875.1,286046994.4,N
1547861895.9,286046995.1,N
1547861915.7,286046998.7,N
1547861935.5,286046999.0,N
1547861955.4,286046993.3,N
1547861975.2,286046994.9,N
1547861995.1,286047003.7,N
1547861996.0,286047003.7,N
1547862015.8,286047007.0,N
1547862035.6,286047012.8,N
1547862055.5,286047014.6,N
1547862075.3,286047012.5,N
1547862095.2,286047016.5,N
1547862115.9,286047016.6,N
1547862135.7,286047013.8,N
1547862155.6,286047012.6,N
1547862175.4,286047011.1,N
1547862195.2,286047010.3,N
1547862245.1,286047008.9,E
1547862255.0,286047002.2,N
1547862255.9,286047002.2,P
1547862275.8,286046998.2,P
1547862295.6,286047004.8,N
1547862315.5,286046999.7,N
1547862335.3,286047002.4,N
1547862355.1,286047007.3,Y
1547862375.9,286046998.0,P
1547862395.7,286046995.9,N
1547862415.5,286046989.1,P
1547862435.4,286046992.0,N
1547862455.2,286046993.5,N
1547862475.1,286046995.6,N
1547862476.0,286046995.6,N
1547862495.8,286047005.6,N
1547862515.6,286046999.7,N
1547862535.5,286047002.7,N
1547862555.3,286047002.6,N
1547862575.2,286046995.0,N
1547862595.9,286046997.3,N
1547862615.7,286046994.9,N
1547862635.6,286047001.5,N
1547862655.4,286046997.7,N
1547862675.3,286046987.1,Y
1547862695.1,286046997.1,P
1547862696.0,286046997.1,P
1547862715.8,286046997.2,P
1547862735.7,286047006.0,Y
1547862755.5,286047009.1,P
1547862775.4,286047007.8,N
1547862795.2,286047008.2,N
1547862815.0,286047007.1,N
1547862815.9,286047007.1,N
1547862835.8,286047012.2,Y
1547862855.6,286047007.9,P
1547862875.5,286047010.3,P
1547862895.3,286047010.8,P
1547862915.1,286047011.9,Y
1547862935.9,286047000.3,P
1547862955.7,286047002.4,N
1547862975.6,286047000.3,N
1547862995.4,286046994.3,N
1547863015.2,286046991.9,N
1547863035.1,286046992.1,N
1547863036.0,286046992.1,N
1547863055.8,286046986.7,N
1547863075.6,286046991.1,N
1547863095.5,286046993.4,N
1547863115.3,286046989.6,N
1547863135.2,286046991.5,N
1547863155.9,286046993.1,N
1547863175.7,286046998.7,N
1547863195.6,286047001.7,N
